[[{"header":{"parameterUnit":"m.s-1","parameterCategory":1,"la1":30.2991,"la2":30.254,"lo1":-89.0895,"lo2":-89.0444,"dy":0.0017,"dx":0.0017,"nx":28,"ny":28,"refTime":"2023-09-24T21:00:00:Z","depth":0,"parameterNumber":2,"parameterNumberName":"U-component_of_WINDS"},"data":[0,0,0,0,0,0,0,0,0,0,0,0,0,0,0,0,0,0,0,0,0,0,0,0,0,0,0,0,0,0,0,0,0,0,0,0,0,0,0,0,0,0,0,0,0,0,0,0,0,0,0,0,0,0,0,0,0,0,-0.5583,-0.5582,0,-0.5517,-0.5517,-0.5516,-0.5475,-0.5475,-0.5475,-0.5475,-0.5407,-0.5406,-0.5404,0,0,0,0,0,0,0,0,0,0,0,0,0,-0.5675,-0.5674,-0.5583,-0.5582,-0.5581,-0.5518,-0.5517,-0.5516,-0.5475,-0.5475,-0.5475,-0.5475,-0.5408,-0.5406,-0.5404,0,0,0,0,0,0,0,0,0,0,0,0,0,-0.5625,-0.5673,-0.5583,-0.5554,-0.555,-0.5518,-0.5517,-0.5516,-0.5475,-0.5475,-0.5475,-0.5474,-0.5409,-0.5406,-0.5404,-0.5396,0,0,-0.5397,-0.5396,0,0,0,0,0,0,0,0,-0.5628,-0.5622,-0.5559,-0.5556,-0.5552,-0.5504,-0.5524,-0.5475,-0.5475,-0.5504,-0.5475,-0.5474,-0.544,-0.5435,-0.5423,-0.5393,-0.539,-0.5396,-0.5395,-0.5394,-0.5393,0,0,0,0,0,0,0,-0.5631,-0.5624,-0.5557,-0.5558,-0.5554,-0.5544,-0.5537,-0.5515,-0.5475,-0.5501,-0.5498,-0.5491,-0.5438,-0.5426,-0.5421,-0.5389,-0.5397,-0.5394,-0.5393,-0.5392,-0.535,-0.5351,0,0,0,0,0,0,-0.5639,-0.5627,-0.5559,-0.5555,-0.559,-0.5543,-0.5534,-0.552,-0.5475,-0.5467,-0.5491,-0.5489,-0.543,-0.5424,-0.5419,-0.5408,-0.5394,-0.5392,-0.539,-0.535,-0.535,-0.5351,0,0,0,0,0,0,-0.5641,-0.5634,-0.5562,-0.559,-0.558,-0.5541,-0.5526,-0.5519,-0.5506,-0.5467,-0.546,-0.5486,-0.5429,-0.5422,-0.5402,-0.5405,-0.5391,-0.5389,-0.535,-0.535,-0.5351,-0.5384,0,0,0,0,0,0,-0.5644,-0.5635,-0.5631,-0.5591,-0.5579,-0.5546,-0.5526,-0.5518,-0.5502,-0.5499,-0.546,-0.5454,-0.5429,-0.5406,-0.54,-0.5401,-0.5387,-0.5349,-0.535,-0.5351,-0.5383,-0.5386,-0.5389,0,0,0,0,0,-0.5648,-0.5642,-0.5631,-0.5623,-0.5573,-0.5546,-0.554,-0.5511,-0.5503,-0.5499,-0.5474,-0.5455,-0.5406,-0.5404,-0.5397,-0.5398,-0.5349,-0.535,-0.535,-0.5382,-0.5385,-0.5389,0,0,0,0,0,0,-0.5683,-0.5637,-0.5623,-0.5604,-0.558,-0.5539,-0.5533,-0.5516,-0.5493,-0.5491,-0.5456,-0.5448,-0.5432,-0.5413,-0.5412,-0.5389,-0.5375,-0.5375,-0.5401,-0.5405,-0.5408,-0.5412,-0.5385,0,0,0,0,0,-0.5689,-0.5671,-0.5631,-0.5619,-0.5607,-0.5573,-0.556,-0.554,-0.5513,-0.5502,-0.5475,-0.545,-0.5429,-0.5416,-0.5394,-0.538,-0.5372,-0.5377,-0.538,-0.5383,-0.5382,-0.5375,-0.5378,-0.5353,-0.5353,-0.5353,0,0,-0.5701,-0.5673,-0.5663,-0.5625,-0.5603,-0.5586,-0.5564,-0.5546,-0.5532,-0.5499,-0.5479,-0.5459,-0.5429,-0.5412,-0.5403,-0.5396,-0.5388,-0.5384,-0.5386,-0.5384,-0.5376,-0.5379,-0.5381,-0.5354,-0.5354,-0.5353,0,0,-0.5713,-0.569,-0.5677,-0.5657,-0.5625,-0.5602,-0.5599,-0.5562,-0.5548,-0.5527,-0.5502,-0.5486,-0.545,-0.543,-0.5415,-0.5422,-0.5404,-0.5416,-0.5431,-0.5424,-0.5426,-0.5428,-0.5431,-0.5433,-0.5416,-0.5416,-0.5416,0,-0.5732,-0.5703,-0.5673,-0.5657,-0.5642,-0.5612,-0.56,-0.5581,-0.5543,-0.5534,-0.5526,-0.5481,-0.5459,-0.5438,-0.544,-0.5428,-0.5425,-0.542,-0.5428,-0.543,-0.5431,-0.5434,-0.5435,-0.5418,-0.5418,-0.5418,-0.5417,0,-0.5728,-0.5709,-0.5704,-0.5669,-0.5653,-0.5638,-0.5607,-0.5595,-0.5577,-0.5556,-0.5536,-0.5508,-0.5481,-0.5475,-0.5457,-0.5452,-0.5448,-0.5435,-0.5421,-0.5435,-0.5438,-0.5438,-0.542,-0.542,-0.5419,-0.5419,0,0,-0.576,-0.571,-0.5708,-0.5693,-0.5656,-0.5641,-0.5627,-0.56,-0.5591,-0.5567,-0.5554,-0.5526,-0.5514,-0.5497,-0.5477,-0.5471,-0.548,-0.5458,-0.5457,-0.5464,-0.5474,-0.5485,-0.5486,-0.5468,-0.5468,-0.5468,-0.5477,0,-0.5767,-0.5739,-0.5712,-0.5694,-0.5677,-0.5649,-0.5636,-0.5613,-0.5593,-0.5577,-0.5555,-0.5535,-0.552,-0.551,-0.5504,-0.548,-0.5481,-0.5479,-0.5457,-0.5456,-0.5465,-0.5487,-0.5498,-0.5507,-0.5477,-0.5478,-0.5478,0,-0.5771,-0.5749,-0.5729,-0.5695,-0.5687,-0.5676,-0.5651,-0.5635,-0.5609,-0.5595,-0.5577,-0.5557,-0.5541,-0.5529,-0.5508,-0.5507,-0.5496,-0.5484,-0.5484,-0.548,-0.5468,-0.5485,-0.551,-0.5511,-0.5479,-0.5478,-0.5478,0,-0.5798,-0.5762,-0.5746,-0.5734,-0.5694,-0.5687,-0.567,-0.5644,-0.563,-0.5608,-0.56,-0.5576,-0.5564,-0.5547,-0.5521,-0.5515,-0.5503,-0.5488,-0.5492,-0.5492,-0.549,-0.549,-0.5514,-0.5483,-0.5483,-0.5483,-0.5483,0,-0.5809,-0.5798,-0.5758,-0.5748,-0.5735,-0.5705,-0.5694,-0.5675,-0.5652,-0.5638,-0.5613,-0.5601,-0.5567,-0.5552,-0.5532,-0.5518,-0.5512,-0.5501,-0.5496,-0.5504,-0.5505,-0.5496,-0.5495,-0.5483,-0.5483,-0.5483,-0.5483,0,-0.5835,-0.5808,-0.5789,-0.5753,-0.5744,-0.5737,-0.5706,-0.5696,-0.5676,-0.5659,-0.5654,-0.5622,-0.5602,-0.5575,-0.5547,-0.5534,-0.5523,-0.5514,-0.5532,-0.5529,-0.5534,-0.5534,-0.5552,-0.5553,-0.5522,-0.5522,-0.5522,0,-0.5844,-0.5835,-0.5799,-0.5788,-0.5772,-0.5755,-0.5742,-0.5713,-0.57,-0.567,-0.5664,-0.5643,-0.5624,-0.5595,-0.557,-0.5549,-0.554,-0.5547,-0.5536,-0.5545,-0.5541,-0.5542,-0.5541,-0.555,-0.5551,-0.5551,-0.5551,0,-0.5863,-0.5851,-0.5832,-0.5809,-0.5793,-0.5774,-0.5753,-0.5746,-0.5713,-0.57,-0.568,-0.5666,-0.5638,-0.5618,-0.5594,-0.5577,-0.5559,-0.5555,-0.5555,-0.5563,-0.5574,-0.5569,-0.554,-0.5555,-0.5554,-0.5554,-0.5554,-0.5554,-0.5882,-0.5873,-0.5847,-0.5827,-0.5809,-0.579,-0.578,-0.5758,-0.5741,-0.5716,-0.57,-0.5682,-0.5657,-0.5623,-0.5608,-0.5593,-0.5586,-0.5585,-0.5585,-0.5585,-0.5589,-0.5576,-0.5589,-0.5589,-0.5588,-0.5588,-0.5588,0,-0.59,-0.5882,-0.5864,-0.5837,-0.5822,-0.5806,-0.5783,-0.5772,-0.5756,-0.5734,-0.5717,-0.5695,-0.5676,-0.565,-0.5629,-0.5622,-0.5614,-0.5618,-0.5618,-0.5615,-0.5596,-0.5599,-0.5625,-0.5625,-0.5625,-0.5625,-0.5625,-0.5625,-0.5908,-0.5893,-0.5877,-0.5853,-0.5835,-0.5817,-0.5805,-0.5789,-0.5772,-0.5748,-0.5732,-0.5715,-0.5693,-0.567,-0.5652,-0.5645,-0.5639,-0.5646,-0.5636,-0.5619,-0.5616,-0.5613,-0.5615,-0.5645,-0.5645,-0.5656,-0.5656,-0.5657]},{"header":{"parameterUnit":"m.s-1","parameterCategory":1,"la1":30.2991,"la2":30.254,"lo1":-89.0895,"lo2":-89.0444,"dy":0.0017,"dx":0.0017,"nx":28,"ny":28,"refTime":"2023-09-24T21:00:00:Z","depth":0,"parameterNumber":3,"parameterNumberName":"V-component_of_WINDS"},"data":[0,0,0,0,0,0,0,0,0,0,0,0,0,0,0,0,0,0,0,0,0,0,0,0,0,0,0,0,0,0,0,0,0,0,0,0,0,0,0,0,0,0,0,0,0,0,0,0,0,0,0,0,0,0,0,0,0,0,4.739,4.739,0,4.7337,4.7336,4.7335,4.7306,4.7306,4.7306,4.7306,4.7245,4.7243,4.7242,0,0,0,0,0,0,0,0,0,0,0,0,0,4.7464,4.7462,4.739,4.739,4.7389,4.7337,4.7336,4.7335,4.7306,4.7306,4.7306,4.7306,4.7246,4.7244,4.7242,0,0,0,0,0,0,0,0,0,0,0,0,0,4.7423,4.7462,4.7391,4.7369,4.7366,4.7337,4.7336,4.7335,4.7306,4.7306,4.7306,4.7306,4.7246,4.7244,4.7241,4.7228,0,0,4.7234,4.7233,0,0,0,0,0,0,0,0,4.7425,4.742,4.7372,4.737,4.7367,4.7328,4.7339,4.7299,4.7306,4.7329,4.7306,4.7306,4.7272,4.7268,4.7258,4.7225,4.7222,4.7234,4.7232,4.7231,4.7231,0,0,0,0,0,0,0,4.7428,4.7422,4.7369,4.7372,4.7369,4.736,4.7354,4.7331,4.7301,4.7327,4.7325,4.7319,4.7271,4.726,4.7256,4.7222,4.7234,4.7232,4.723,4.7229,4.7176,4.7176,0,0,0,0,0,0,4.7435,4.7425,4.7371,4.7367,4.7397,4.7359,4.7352,4.7341,4.7302,4.7296,4.7319,4.7318,4.7264,4.7259,4.7254,4.7236,4.7231,4.7229,4.7228,4.7176,4.7176,4.7176,0,0,0,0,0,0,4.7437,4.7431,4.7373,4.7396,4.7388,4.7357,4.7345,4.734,4.7329,4.7296,4.729,4.7314,4.7264,4.7257,4.7235,4.7233,4.7228,4.7226,4.7176,4.7176,4.7176,4.72,0,0,0,0,0,0,4.7439,4.7431,4.7427,4.7396,4.7387,4.7357,4.7345,4.7339,4.7326,4.7323,4.7289,4.7284,4.7263,4.7239,4.7233,4.723,4.7224,4.7176,4.7176,4.7176,4.7199,4.7201,4.7202,0,0,0,0,0,4.7442,4.7434,4.7427,4.7421,4.7381,4.7357,4.7351,4.733,4.7326,4.732,4.7299,4.7285,4.7235,4.7237,4.723,4.7226,4.7176,4.7176,4.7176,4.7198,4.72,4.7202,0,0,0,0,0,0,4.7464,4.743,4.7421,4.7404,4.7384,4.7352,4.7345,4.7332,4.7311,4.731,4.7282,4.7275,4.7256,4.7238,4.7242,4.7211,4.7204,4.7202,4.7223,4.7225,4.7226,4.723,4.7222,0,0,0,0,0,4.7467,4.7452,4.7423,4.741,4.7401,4.7375,4.7363,4.7349,4.7326,4.7317,4.7294,4.7271,4.725,4.7236,4.7215,4.7197,4.7188,4.7191,4.7192,4.7193,4.7192,4.7182,4.7182,4.7176,4.7176,4.7176,0,0,4.7473,4.7452,4.7444,4.7414,4.7397,4.7381,4.7367,4.735,4.7338,4.7313,4.7292,4.7275,4.7247,4.7227,4.7217,4.7212,4.7193,4.7193,4.7195,4.7193,4.7182,4.7182,4.7183,4.7176,4.7176,4.7176,0,0,4.7475,4.7459,4.7447,4.743,4.7405,4.7388,4.7385,4.7356,4.7344,4.7323,4.7304,4.7288,4.7252,4.7234,4.722,4.7217,4.7202,4.721,4.7218,4.7208,4.7208,4.7209,4.7207,4.7207,4.7209,4.721,4.721,0,4.7485,4.7462,4.7441,4.7427,4.7414,4.7393,4.738,4.7365,4.7333,4.7324,4.732,4.7276,4.7255,4.7231,4.7231,4.722,4.7215,4.7214,4.721,4.721,4.721,4.7209,4.7209,4.7211,4.7211,4.721,4.721,0,4.7475,4.7459,4.7452,4.7425,4.7411,4.7397,4.7374,4.7362,4.7349,4.7332,4.7311,4.7286,4.726,4.7253,4.7239,4.7227,4.7225,4.7216,4.7207,4.7212,4.7211,4.721,4.7212,4.7212,4.7212,4.7211,0,0,4.7488,4.7452,4.745,4.7438,4.7409,4.7395,4.738,4.7357,4.7348,4.7327,4.7313,4.7284,4.7276,4.726,4.7244,4.7235,4.7235,4.7227,4.7226,4.7229,4.722,4.7227,4.7227,4.7226,4.7226,4.7225,4.7222,0,4.7486,4.7461,4.7443,4.7423,4.7409,4.739,4.7376,4.7357,4.7341,4.7324,4.7306,4.7286,4.7277,4.7267,4.7258,4.7237,4.7233,4.7237,4.7211,4.7211,4.7219,4.7226,4.7233,4.7231,4.7221,4.7221,4.7221,0,4.7481,4.7463,4.7443,4.7418,4.741,4.7399,4.7377,4.7362,4.7339,4.7328,4.7312,4.7296,4.7278,4.7272,4.7246,4.725,4.7238,4.7226,4.7226,4.7222,4.7216,4.7222,4.723,4.723,4.722,4.722,4.722,0,4.7493,4.7464,4.7448,4.7438,4.7408,4.7401,4.7387,4.7365,4.7352,4.7332,4.7324,4.7301,4.7289,4.7271,4.7249,4.7247,4.7226,4.7218,4.7215,4.7215,4.7211,4.7211,4.7217,4.7204,4.7204,4.7204,4.7204,0,4.7492,4.7481,4.7454,4.7444,4.743,4.741,4.7396,4.7381,4.7361,4.7347,4.7329,4.7315,4.7288,4.7271,4.7253,4.7235,4.7229,4.7219,4.7214,4.722,4.7222,4.7212,4.7211,4.7204,4.7204,4.7204,4.7204,0,4.7503,4.7485,4.7467,4.744,4.7433,4.7425,4.7401,4.739,4.7374,4.7357,4.7351,4.7325,4.7305,4.7282,4.7252,4.724,4.7223,4.7217,4.7232,4.7229,4.7228,4.7228,4.7227,4.7225,4.7214,4.7214,4.7214,0,4.7504,4.7495,4.7469,4.746,4.7447,4.7432,4.742,4.7399,4.7387,4.7361,4.7354,4.7332,4.7314,4.7282,4.7259,4.7237,4.7229,4.723,4.7225,4.7232,4.7229,4.723,4.7229,4.7231,4.7232,4.7232,4.7232,0,4.7508,4.75,4.7484,4.7466,4.7453,4.7437,4.742,4.7412,4.7388,4.7375,4.7355,4.7341,4.7313,4.7292,4.7267,4.7251,4.7237,4.7234,4.7232,4.7238,4.7247,4.7242,4.7235,4.7234,4.7234,4.7233,4.7233,4.7233,4.7513,4.7505,4.7486,4.7469,4.7455,4.744,4.7429,4.7413,4.7396,4.7374,4.7362,4.7342,4.7319,4.7285,4.727,4.7253,4.7249,4.7246,4.7245,4.7245,4.7247,4.7251,4.7249,4.7249,4.7248,4.7248,4.7248,0,4.7516,4.7503,4.7489,4.7467,4.7454,4.7445,4.7425,4.7415,4.7398,4.738,4.7363,4.734,4.732,4.7296,4.7274,4.7265,4.7258,4.726,4.726,4.7257,4.7252,4.7256,4.7266,4.7266,4.7266,4.7266,4.7266,4.7266,4.7516,4.7502,4.7491,4.7469,4.7456,4.7439,4.7429,4.7414,4.7399,4.7376,4.736,4.7346,4.7325,4.7301,4.7282,4.7275,4.7267,4.7271,4.7263,4.7259,4.7257,4.7256,4.7259,4.727,4.727,4.7269,4.7269,4.7269]}]]